Time,TemperatureF,DewpointF,PressureIn,WindDirection,WindDirectionDegrees,WindSpeedMPH,WindSpeedGustMPH,Humidity,HourlyPrecipIn,Conditions,Clouds,dailyrainin,SolarRadiationWatts/m^2,SoftwareType,DateUTC
2013-06-03 00:09:00,65.0,60.0,29.95,North,360,0.0,5.0,84,0.00,,,0.00,0,weatherlink.com 1.10,2013-06-03 05:09:00,
2013-06-03 00:24:00,64.9,60.0,29.95,NNE,18,1.0,4.0,84,0.00,,,0.00,0,weatherlink.com 1.10,2013-06-03 05:24:00,
2013-06-03 00:39:00,64.6,60.0,29.95,North,5,0.0,3.0,84,0.00,,,0.00,0,weatherlink.com 1.10,2013-06-03 05:39:00,
2013-06-03 00:54:00,64.3,60.0,29.95,NE,34,2.0,2.0,85,0.00,,,0.00,0,weatherlink.com 1.10,2013-06-03 05:54:00,
2013-06-03 01:09:00,64.0,60.0,29.94,North,355,0.0,3.0,85,0.00,,,0.00,0,weatherlink.com 1.10,2013-06-03 06:09:00,
2013-06-03 01:24:00,63.4,59.0,29.94,North,355,0.0,1.0,86,0.00,,,0.00,0,weatherlink.com 1.10,2013-06-03 06:24:00,
2013-06-03 01:39:00,63.0,59.0,29.93,North,355,0.0,1.0,87,0.00,,,0.00,0,weatherlink.com 1.10,2013-06-03 06:39:00,
2013-06-03 01:54:00,62.6,59.0,29.93,North,355,0.0,1.0,89,0.00,,,0.00,0,weatherlink.com 1.10,2013-06-03 06:54:00,
2013-06-03 02:09:00,62.3,59.0,29.93,North,355,0.0,0.0,89,0.00,,,0.00,0,weatherlink.com 1.10,2013-06-03 07:09:00,
2013-06-03 02:24:00,62.2,59.0,29.94,North,355,0.0,1.0,90,0.00,,,0.00,0,weatherlink.com 1.10,2013-06-03 07:24:00,
2013-06-03 02:39:00,62.1,59.0,29.93,North,355,0.0,0.0,90,0.00,,,0.00,0,weatherlink.com 1.10,2013-06-03 07:39:00,
2013-06-03 02:54:00,62.0,59.0,29.93,North,355,0.0,0.0,90,0.00,,,0.00,0,weatherlink.com 1.10,2013-06-03 07:54:00,
2013-06-03 03:09:00,61.8,59.0,29.93,North,355,0.0,0.0,91,0.00,,,0.00,0,weatherlink.com 1.10,2013-06-03 08:09:00,
2013-06-03 03:24:00,61.4,59.0,29.93,North,355,0.0,0.0,91,0.00,,,0.00,0,weatherlink.com 1.10,2013-06-03 08:24:00,
2013-06-03 03:40:00,61.0,58.0,29.94,North,355,0.0,0.0,91,0.00,,,0.00,0,weatherlink.com 1.10,2013-06-03 08:40:00,
2013-06-03 03:55:00,60.8,59.0,29.94,North,355,0.0,1.0,93,0.00,,,0.00,0,weatherlink.com 1.10,2013-06-03 08:55:00,
2013-06-03 04:10:00,60.5,59.0,29.94,North,355,0.0,0.0,93,0.00,,,0.00,0,weatherlink.com 1.10,2013-06-03 09:10:00,
2013-06-03 04:25:00,60.4,58.0,29.95,North,355,0.0,0.0,93,0.00,,,0.00,0,weatherlink.com 1.10,2013-06-03 09:25:00,
2013-06-03 04:40:00,60.3,59.0,29.96,North,355,0.0,2.0,94,0.00,,,0.00,0,weatherlink.com 1.10,2013-06-03 09:40:00,
2013-06-03 04:55:00,60.1,58.0,29.97,North,355,0.0,2.0,94,0.00,,,0.00,0,weatherlink.com 1.10,2013-06-03 09:55:00,
2013-06-03 05:10:00,60.0,58.0,29.96,North,355,0.0,1.0,94,0.00,,,0.00,0,weatherlink.com 1.10,2013-06-03 10:10:00,
2013-06-03 05:25:00,59.7,58.0,29.97,North,355,0.0,1.0,94,0.00,,,0.00,0,weatherlink.com 1.10,2013-06-03 10:25:00,
2013-06-03 05:40:00,59.6,58.0,29.97,North,355,1.0,2.0,94,0.00,,,0.00,0,weatherlink.com 1.10,2013-06-03 10:40:00,
2013-06-03 05:55:00,59.6,58.0,29.98,North,355,0.0,1.0,95,0.00,,,0.00,7,weatherlink.com 1.10,2013-06-03 10:55:00,
2013-06-03 06:10:00,59.6,58.0,29.99,North,355,0.0,1.0,95,0.00,,,0.00,18,weatherlink.com 1.10,2013-06-03 11:10:00,
2013-06-03 06:25:00,59.9,59.0,29.99,North,355,0.0,3.0,95,0.00,,,0.00,26,weatherlink.com 1.10,2013-06-03 11:25:00,
2013-06-03 06:40:00,60.4,59.0,30.00,North,355,0.0,2.0,96,0.00,,,0.00,77,weatherlink.com 1.10,2013-06-03 11:40:00,
2013-06-03 06:55:00,61.5,60.0,30.00,North,355,0.0,2.0,96,0.00,,,0.00,144,weatherlink.com 1.10,2013-06-03 11:55:00,
2013-06-03 07:10:00,62.5,61.0,30.00,North,360,1.0,3.0,95,0.00,,,0.00,190,weatherlink.com 1.10,2013-06-03 12:10:00,
2013-06-03 07:25:00,63.8,62.0,30.01,NW,318,0.0,3.0,94,0.00,,,0.00,241,weatherlink.com 1.10,2013-06-03 12:25:00,
2013-06-03 07:40:00,65.3,62.0,30.01,NE,51,0.0,5.0,90,0.00,,,0.00,295,weatherlink.com 1.10,2013-06-03 12:40:00,
2013-06-03 07:55:00,66.6,63.0,30.01,ENE,58,1.0,5.0,87,0.00,,,0.00,345,weatherlink.com 1.10,2013-06-03 12:55:00,
2013-06-03 08:10:00,67.6,63.0,30.01,North,10,1.0,5.0,85,0.00,,,0.00,396,weatherlink.com 1.10,2013-06-03 13:10:00,
2013-06-03 08:25:00,68.4,63.0,30.01,ENE,64,0.0,7.0,83,0.00,,,0.00,454,weatherlink.com 1.10,2013-06-03 13:25:00,
2013-06-03 08:40:00,68.8,63.0,30.01,NE,42,4.0,6.0,81,0.00,,,0.00,501,weatherlink.com 1.10,2013-06-03 13:40:00,
2013-06-03 08:56:00,69.4,63.0,30.01,East,87,2.0,6.0,81,0.00,,,0.00,545,weatherlink.com 1.10,2013-06-03 13:56:00,
2013-06-03 09:11:00,70.0,64.0,30.01,NE,52,5.0,7.0,80,0.00,,,0.00,599,weatherlink.com 1.10,2013-06-03 14:11:00,
2013-06-03 09:27:00,70.6,63.0,30.01,NNE,14,2.0,6.0,78,0.00,,,0.00,640,weatherlink.com 1.10,2013-06-03 14:27:00,
2013-06-03 09:41:00,71.2,64.0,30.00,NE,50,3.0,5.0,78,0.00,,,0.00,680,weatherlink.com 1.10,2013-06-03 14:41:00,
2013-06-03 09:56:00,71.9,64.0,30.00,North,5,2.0,7.0,76,0.00,,,0.00,747,weatherlink.com 1.10,2013-06-03 14:56:00,
2013-06-03 10:12:00,73.2,65.0,30.00,NNW,338,1.0,7.0,75,0.00,,,0.00,872,weatherlink.com 1.10,2013-06-03 15:12:00,
2013-06-03 10:26:00,73.5,64.0,30.00,North,355,2.0,3.0,72,0.00,,,0.00,315,weatherlink.com 1.10,2013-06-03 15:26:00,
2013-06-03 10:41:00,73.0,63.0,29.99,NNE,31,1.0,4.0,71,0.00,,,0.00,202,weatherlink.com 1.10,2013-06-03 15:41:00,
2013-06-03 10:58:00,73.2,64.0,29.99,North,355,4.0,7.0,73,0.00,,,0.00,1076,weatherlink.com 1.10,2013-06-03 15:58:00,
2013-06-03 11:13:00,73.8,63.0,30.00,NE,54,2.0,4.0,70,0.00,,,0.00,482,weatherlink.com 1.10,2013-06-03 16:13:00,
2013-06-03 11:28:00,73.9,64.0,29.99,West,269,2.0,5.0,70,0.00,,,0.00,543,weatherlink.com 1.10,2013-06-03 16:28:00,
2013-06-03 11:43:00,75.1,65.0,29.99,NW,316,1.0,5.0,70,0.00,,,0.00,1116,weatherlink.com 1.10,2013-06-03 16:43:00,
2013-06-03 11:58:00,75.1,62.0,29.99,NW,324,2.0,5.0,65,0.00,,,0.00,371,weatherlink.com 1.10,2013-06-03 16:58:00,
2013-06-03 12:13:00,75.6,64.0,29.98,North,10,3.0,5.0,67,0.00,,,0.00,633,weatherlink.com 1.10,2013-06-03 17:13:00,
2013-06-03 12:28:00,75.4,62.0,29.98,NNE,30,3.0,3.0,63,0.00,,,0.00,267,weatherlink.com 1.10,2013-06-03 17:28:00,
2013-06-03 12:43:00,75.1,62.0,29.98,North,351,2.0,6.0,64,0.00,,,0.00,241,weatherlink.com 1.10,2013-06-03 17:43:00,
2013-06-03 12:58:00,75.5,61.0,29.97,ENE,77,1.0,7.0,62,0.00,,,0.00,213,weatherlink.com 1.10,2013-06-03 17:58:00,
2013-06-03 13:13:00,75.9,62.0,29.97,NE,42,0.0,5.0,63,0.00,,,0.00,295,weatherlink.com 1.10,2013-06-03 18:13:00,
2013-06-03 13:30:00,77.4,63.0,29.96,NE,35,5.0,7.0,61,0.00,,,0.00,1144,weatherlink.com 1.10,2013-06-03 18:30:00,
2013-06-03 13:45:00,77.5,60.0,29.96,ESE,102,1.0,7.0,56,0.00,,,0.00,1065,weatherlink.com 1.10,2013-06-03 18:45:00,
2013-06-03 14:00:00,76.9,63.0,29.95,NE,49,4.0,8.0,62,0.00,,,0.00,870,weatherlink.com 1.10,2013-06-03 19:00:00,
2013-06-03 14:15:00,78.0,61.0,29.94,NE,41,1.0,8.0,56,0.00,,,0.00,1060,weatherlink.com 1.10,2013-06-03 19:15:00,
2013-06-03 14:30:00,77.5,63.0,29.94,North,353,2.0,6.0,62,0.00,,,0.00,933,weatherlink.com 1.10,2013-06-03 19:30:00,
2013-06-03 14:45:00,78.7,63.0,29.94,NE,42,4.0,6.0,58,0.00,,,0.00,258,weatherlink.com 1.10,2013-06-03 19:45:00,
2013-06-03 15:00:00,78.9,61.0,29.94,ENE,69,1.0,8.0,54,0.00,,,0.00,926,weatherlink.com 1.10,2013-06-03 20:00:00,
2013-06-03 15:16:00,79.8,61.0,29.93,NE,56,3.0,6.0,53,0.00,,,0.00,953,weatherlink.com 1.10,2013-06-03 20:16:00,
2013-06-03 15:31:00,80.0,62.0,29.93,ENE,70,3.0,9.0,54,0.00,,,0.00,881,weatherlink.com 1.10,2013-06-03 20:31:00,
2013-06-03 15:46:00,80.5,63.0,29.92,ENE,69,1.0,4.0,56,0.00,,,0.00,817,weatherlink.com 1.10,2013-06-03 20:46:00,
2013-06-03 16:02:00,80.1,61.0,29.92,NE,38,1.0,8.0,52,0.00,,,0.00,740,weatherlink.com 1.10,2013-06-03 21:02:00,
2013-06-03 16:17:00,81.0,63.0,29.92,North,360,2.0,5.0,54,0.00,,,0.00,805,weatherlink.com 1.10,2013-06-03 21:17:00,
2013-06-03 16:31:00,80.4,62.0,29.91,SE,133,1.0,5.0,54,0.00,,,0.00,691,weatherlink.com 1.10,2013-06-03 21:31:00,
2013-06-03 16:46:00,80.0,61.0,29.91,NNW,333,3.0,8.0,53,0.00,,,0.00,649,weatherlink.com 1.10,2013-06-03 21:46:00,
2013-06-03 17:01:00,80.5,62.0,29.91,ENE,76,4.0,8.0,53,0.00,,,0.00,603,weatherlink.com 1.10,2013-06-03 22:01:00,
2013-06-03 17:17:00,79.0,61.0,29.91,ENE,61,2.0,6.0,55,0.00,,,0.00,181,weatherlink.com 1.10,2013-06-03 22:17:00,
2013-06-03 17:31:00,78.3,63.0,29.91,East,96,2.0,3.0,59,0.00,,,0.00,455,weatherlink.com 1.10,2013-06-03 22:31:00,
2013-06-03 17:47:00,79.2,61.0,29.91,ENE,68,2.0,4.0,54,0.00,,,0.00,385,weatherlink.com 1.10,2013-06-03 22:47:00,
2013-06-03 18:02:00,79.2,61.0,29.91,NE,56,4.0,5.0,54,0.00,,,0.00,339,weatherlink.com 1.10,2013-06-03 23:02:00,
2013-06-03 18:18:00,78.1,61.0,29.91,ENE,62,2.0,5.0,56,0.00,,,0.00,118,weatherlink.com 1.10,2013-06-03 23:18:00,
2013-06-03 18:33:00,78.0,62.0,29.91,NE,54,1.0,3.0,58,0.00,,,0.00,207,weatherlink.com 1.10,2013-06-03 23:33:00,
2013-06-03 18:48:00,77.8,61.0,29.91,NNW,348,3.0,5.0,56,0.00,,,0.00,120,weatherlink.com 1.10,2013-06-03 23:48:00,
2013-06-03 19:03:00,76.8,61.0,29.91,East,89,0.0,2.0,59,0.00,,,0.00,56,weatherlink.com 1.10,2013-06-04 00:03:00,
2013-06-03 19:19:00,76.5,62.0,29.91,East,89,2.0,3.0,61,0.00,,,0.00,74,weatherlink.com 1.10,2013-06-04 00:19:00,
2013-06-03 19:33:00,75.8,62.0,29.91,East,89,0.0,2.0,62,0.00,,,0.00,33,weatherlink.com 1.10,2013-06-04 00:33:00,
2013-06-03 19:49:00,75.0,64.0,29.92,East,89,0.0,0.0,68,0.00,,,0.00,12,weatherlink.com 1.10,2013-06-04 00:49:00,
2013-06-03 20:03:00,73.6,63.0,29.92,ENE,78,0.0,0.0,70,0.00,,,0.00,5,weatherlink.com 1.10,2013-06-04 01:03:00,
2013-06-03 20:20:00,71.8,63.0,29.92,ENE,78,0.0,0.0,73,0.00,,,0.00,0,weatherlink.com 1.10,2013-06-04 01:20:00,
2013-06-03 20:35:00,70.5,63.0,29.93,ENE,78,0.0,0.0,78,0.00,,,0.00,0,weatherlink.com 1.10,2013-06-04 01:35:00,
2013-06-03 20:49:00,69.3,63.0,29.93,ENE,78,0.0,0.0,80,0.00,,,0.00,0,weatherlink.com 1.10,2013-06-04 01:49:00,
2013-06-03 21:21:00,67.5,63.0,29.94,ENE,78,0.0,1.0,85,0.00,,,0.00,0,weatherlink.com 1.10,2013-06-04 02:21:00,
2013-06-03 21:35:00,66.7,62.0,29.95,ENE,78,0.0,0.0,85,0.00,,,0.00,0,weatherlink.com 1.10,2013-06-04 02:35:00,
2013-06-03 21:50:00,66.3,62.0,29.95,ENE,78,0.0,0.0,87,0.00,,,0.00,0,weatherlink.com 1.10,2013-06-04 02:50:00,
2013-06-03 22:05:00,65.9,62.0,29.95,ENE,78,0.0,0.0,86,0.00,,,0.00,0,weatherlink.com 1.10,2013-06-04 03:05:00,
2013-06-03 22:20:00,65.4,61.0,29.96,ENE,78,0.0,0.0,86,0.00,,,0.00,0,weatherlink.com 1.10,2013-06-04 03:20:00,
2013-06-03 22:35:00,65.1,61.0,29.97,ENE,78,0.0,0.0,87,0.00,,,0.00,0,weatherlink.com 1.10,2013-06-04 03:35:00,
2013-06-03 22:50:00,64.6,61.0,29.96,ENE,78,0.0,0.0,88,0.00,,,0.00,0,weatherlink.com 1.10,2013-06-04 03:50:00,
2013-06-03 23:05:00,64.4,61.0,29.97,ENE,78,0.0,0.0,89,0.00,,,0.00,0,weatherlink.com 1.10,2013-06-04 04:05:00,
2013-06-03 23:20:00,64.3,61.0,29.96,ENE,78,0.0,1.0,89,0.00,,,0.00,0,weatherlink.com 1.10,2013-06-04 04:20:00,
2013-06-03 23:35:00,64.8,61.0,29.96,ENE,78,1.0,1.0,88,0.00,,,0.00,0,weatherlink.com 1.10,2013-06-04 04:35:00,
2013-06-03 23:50:00,66.0,61.0,29.96,NE,54,0.0,4.0,85,0.00,,,0.00,0,weatherlink.com 1.10,2013-06-04 04:50:00,